Location: Maddington
(51.2000°N, 1.9167°W)
Time: 21:02:05
(UTC+00:00)

NOSS 3-2 (A) - Pass Details

Date: 24 January 2021
Orbit: 783 x 1425 km, 63.4° (Epoch: 07 March)

Event Time Altitude Azimuth Distance (km) Brightness Sun altitude
Rises 05:23:22 0° 188° (S) 3,327 6.2 -23.6°
Reaches altitude 10° 05:25:53 10° 178° (S) 2,450 5.6 -23.2°
Maximum altitude 05:30:52 33° 116° (ESE) 1,482 5.0 -22.4°
Drops below altitude 10° 05:36:28 10° 55° (NE) 2,779 6.6 -21.5°
Sets 05:39:30 0° 47° (NE) 3,842 7.2 -21.0°
